DW6228 Weather Reports


Display with metric or nautical units.
time (UTC)temp
F
wind
direction
speed
MPH
gust
MPH
rain 1hr
in
rain 24hr
in
rain mn
in
humidity
%
barometer
mb
20180621024659 48 290 7.0 16.0 0.00 0.00 0.00 85 1029.9
20180621023655 48 231 7.0 12.0 0.00 0.00 0.00 85 1030.2
20180621022715 48 244 6.0 12.0 0.00 0.00 0.00 84 1030.3
20180621021647 48 240 8.0 15.0 0.00 0.00 0.00 86 1030.3
20180621020626 47 225 9.0 15.0 0.00 0.00 0.00 85 1030.5
20180621015628 47 256 9.0 14.0 0.00 0.00 0.00 85 1030.6
20180621014551 47 253 10.0 14.0 0.00 0.00 0.00 85 1030.5
20180621013542 46 257 9.0 14.0 0.00 0.00 0.00 84 1030.6
20180621012519 46 247 8.0 14.0 0.00 0.00 0.00 84 1030.7
20180621011517 46 270 8.0 13.0 0.00 0.00 0.00 83 1030.8
20180621010521 45 254 8.0 15.0 0.00 0.00 0.00 82 1030.9
20180621005457 45 256 9.0 15.0 0.00 0.00 0.00 82 1031.0
20180621004500 45 265 8.0 13.0 0.00 0.00 0.00 83 1031.1
20180621003442 45 278 7.0 12.0 0.00 0.00 0.00 83 1031.1
20180621002440 44 244 8.0 13.0 0.00 0.00 0.00 84 1031.1
20180621001410 44 268 9.0 14.0 0.00 0.00 0.00 84 1031.2
20180621000337 43 230 9.0 14.0 0.00 0.00 0.00 84 1031.2
20180620235332 43 246 10.0 14.0 0.00 0.00 0.00 85 1031.2
20180620234354 42 244 10.0 15.0 0.00 0.00 0.00 85 1031.1
20180620233414 42 244 10.0 15.0 0.00 0.00 0.00 85 1031.1
20180620232412 42 247 10.0 16.0 0.00 0.00 0.00 86 1030.9
20180620231405 42 242 10.0 16.0 0.00 0.00 0.00 85 1030.9
20180620230404 42 249 10.0 14.0 0.00 0.00 0.00 86 1030.8
20180620225331 42 259 9.0 15.0 0.00 0.00 0.00 86 1030.7
20180620224300 42 235 10.0 15.0 0.00 0.00 0.00 86 1030.7
20180620223242 42 251 10.0 15.0 0.00 0.00 0.00 86 1030.7
20180620222304 41 256 10.0 14.0 0.00 0.00 0.00 87 1030.6
20180620221250 41 264 10.0 15.0 0.00 0.00 0.00 87 1030.5
20180620220248 41 267 11.0 15.0 0.00 0.00 0.00 87 1030.5
20180620215310 41 254 10.0 15.0 0.00 0.00 0.00 87 1030.4
20180620214243 41 259 11.0 14.0 0.00 0.00 0.00 87 1030.3
20180620213219 41 280 10.0 14.0 0.00 0.00 0.00 87 1030.3
20180620212144 41 267 10.0 13.0 0.00 0.00 0.00 86 1030.2
20180620211204 41 249 9.0 16.0 0.00 0.00 0.00 86 1030.1
20180620210152 41 256 11.0 16.0 0.00 0.00 0.00 85 1030.1
20180620205141 42 247 10.0 15.0 0.00 0.00 0.00 84 1029.9
20180620204117 42 256 10.0 14.0 0.00 0.00 0.00 83 1029.7
20180620203136 42 251 10.0 14.0 0.00 0.00 0.00 84 1029.7
20180620202103 42 257 10.0 14.0 0.00 0.00 0.00 84 1029.6
20180620201047 42 250 10.0 14.0 0.00 0.00 0.00 84 1029.4
20180620200037 42 260 11.0 15.0 0.00 0.00 0.00 84 1029.3
20180620195054 42 236 10.0 15.0 0.00 0.00 0.00 84 1029.3
20180620194107 42 259 10.0 13.0 0.00 0.00 0.00 84 1029.3
20180620193039 42 254 8.0 11.0 0.00 0.00 0.00 84 1029.3
20180620192057 42 237 7.0 10.0 0.00 0.00 0.00 84 1029.2
20180620191052 42 251 7.0 10.0 0.00 0.00 0.00 84 1029.2
20180620190016 42 240 8.0 13.0 0.00 0.00 0.00 84 1029.3
20180620184941 42 249 8.0 13.0 0.00 0.00 0.00 84 1029.3
20180620183938 42 249 9.0 13.0 0.00 0.00 0.00 85 1029.2
20180620182932 41 254 9.0 13.0 0.00 0.00 0.00 85 1029.2
20180620181931 41 253 9.0 13.0 0.00 0.00 0.00 86 1029.3
20180620180857 41 242 9.0 12.0 0.00 0.00 0.00 86 1029.3
20180620175846 41 258 9.0 14.0 0.00 0.00 0.00 87 1029.3
20180620174856 41 241 10.0 14.0 0.00 0.00 0.00 87 1029.3
20180620173842 41 250 9.0 14.0 0.00 0.00 0.00 88 1029.3
20180620172902 41 244 9.0 14.0 0.00 0.00 0.00 88 1029.3
20180620171841 41 254 9.0 14.0 0.00 0.00 0.00 88 1029.4
20180620170842 41 265 9.0 14.0 0.00 0.00 0.00 88 1029.5
20180620165831 41 240 9.0 15.0 0.00 0.00 0.00 88 1029.4
20180620164827 41 251 8.0 15.0 0.00 0.00 0.00 88 1029.3
20180620163830 41 276 7.0 13.0 0.00 0.00 0.00 87 1029.3
20180620162802 42 263 9.0 13.0 0.00 0.00 0.00 87 1029.4
20180620161726 42 271 10.0 16.0 0.00 0.00 0.00 87 1029.5
20180620160717 42 252 10.0 16.0 0.00 0.00 0.00 87 1029.5
20180620155703 42 249 10.0 15.0 0.00 0.00 0.00 86 1029.5
20180620154649 42 233 9.0 14.0 0.00 0.00 0.00 86 1029.6
20180620153634 42 247 9.0 13.0 0.00 0.00 0.00 86 1029.5
20180620152625 42 262 8.0 12.0 0.00 0.00 0.00 86 1029.5
20180620151615 42 268 7.0 13.0 0.00 0.00 0.00 86 1029.5
20180620150624 42 269 7.0 13.0 0.00 0.00 0.00 86 1029.5
20180620145632 42 275 7.0 14.0 0.00 0.00 0.00 86 1029.5
20180620144602 42 257 8.0 14.0 0.00 0.00 0.00 86 1029.6
20180620143623 42 274 7.0 13.0 0.00 0.00 0.00 85 1029.6
20180620142553 42 279 8.0 13.0 0.00 0.00 0.00 86 1029.7
20180620141543 42 254 7.0 13.0 0.00 0.00 0.00 85 1029.7
20180620140525 42 255 8.0 12.0 0.00 0.00 0.00 85 1029.8
20180620135459 42 265 7.0 12.0 0.00 0.00 0.00 86 1029.9
20180620134505 42 250 8.0 12.0 0.00 0.00 0.00 86 1029.9
20180620133430 42 245 7.0 14.0 0.00 0.00 0.00 87 1029.8
20180620132426 42 259 9.0 15.0 0.00 0.00 0.00 87 1029.7
20180620131415 42 249 9.0 15.0 0.00 0.00 0.00 87 1029.6
20180620130419 42 268 10.0 15.0 0.00 0.00 0.00 87 1029.5
20180620125429 42 260 9.0 17.0 0.00 0.00 0.00 87 1029.4
20180620124408 42 263 9.0 17.0 0.00 0.00 0.00 88 1029.4
20180620123429 42 249 10.0 15.0 0.00 0.00 0.00 88 1029.4
20180620122403 42 261 9.0 15.0 0.00 0.00 0.00 87 1029.4
20180620121424 42 267 9.0 18.0 0.00 0.00 0.00 87 1029.3
20180620120413 42 272 10.0 18.0 0.00 0.00 0.00 86 1029.1
20180620115410 42 256 9.0 15.0 0.00 0.00 0.00 86 1029.1
20180620114347 42 282 11.0 15.0 0.00 0.00 0.00 87 1029.0
20180620113335 42 282 10.0 16.0 0.00 0.00 0.00 87 1028.9
20180620112313 42 289 8.0 15.0 0.00 0.00 0.00 87 1029.1
20180620111240 42 266 7.0 14.0 0.00 0.00 0.00 87 1029.4
20180620110234 42 282 7.0 14.0 0.00 0.00 0.00 87 1029.3
20180620105210 42 273 6.0 12.0 0.00 0.00 0.00 88 1029.2
20180620104224 42 268 5.0 12.0 0.00 0.00 0.00 88 1029.1
20180620103218 42 264 7.0 14.0 0.00 0.00 0.00 87 1029.1
20180620102221 42 272 6.0 14.0 0.00 0.00 0.00 88 1029.1
20180620101159 43 288 6.0 13.0 0.00 0.00 0.00 87 1029.1
20180620100208 43 308 7.0 14.0 0.00 0.00 0.00 87 1029.0
20180620095153 43 287 8.0 14.0 0.00 0.00 0.00 86 1028.9
20180620094135 43 282 7.0 13.0 0.00 0.00 0.00 87 1028.9
20180620093146 43 285 5.0 10.0 0.00 0.00 0.00 88 1028.8
20180620092124 43 268 5.0 11.0 0.00 0.00 0.00 88 1028.9
20180620091136 44 282 6.0 13.0 0.00 0.00 0.00 88 1028.8
20180620090149 44 299 7.0 13.0 0.00 0.00 0.00 87 1028.8
20180620085148 44 296 8.0 17.0 0.00 0.00 0.00 87 1028.7
20180620084201 44 304 8.0 17.0 0.00 0.00 0.00 87 1028.6
20180620083157 45 308 8.0 14.0 0.00 0.00 0.00 86 1028.6
20180620082156 45 289 8.0 15.0 0.00 0.00 0.00 85 1028.5
20180620081122 45 298 8.0 15.0 0.00 0.00 0.00 84 1028.5
20180620080105 45 314 8.0 17.0 0.00 0.00 0.00 83 1028.2
20180620075105 46 321 8.0 17.0 0.00 0.00 0.00 82 1028.2
20180620074108 46 302 9.0 15.0 0.00 0.00 0.00 82 1028.1
20180620073113 46 299 9.0 15.0 0.00 0.00 0.00 82 1028.0
20180620072115 46 294 8.0 14.0 0.00 0.00 0.00 83 1027.9
20180620071102 46 287 8.0 16.0 0.00 0.00 0.00 83 1027.9
20180620070057 46 311 8.0 17.0 0.00 0.00 0.00 83 1027.8
20180620065023 47 338 8.0 17.0 0.00 0.00 0.00 83 1027.7
20180620064035 47 306 5.0 12.0 0.00 0.00 0.00 84 1027.8
20180620063053 47 332 5.0 12.0 0.00 0.00 0.00 84 1027.8
20180620062027 47 310 5.0 10.0 0.00 0.00 0.00 83 1027.7
20180620060953 47 296 6.0 15.0 0.00 0.00 0.00 82 1027.6
20180620055956 48 296 8.0 15.0 0.00 0.00 0.00 81 1027.7
20180620055017 48 318 7.0 14.0 0.00 0.00 0.00 81 1027.6
20180620054001 48 307 7.0 15.0 0.00 0.00 0.00 81 1027.7
20180620053011 48 312 8.0 15.0 0.00 0.00 0.00 80 1027.6
20180620052005 48 323 8.0 14.0 0.00 0.00 0.00 79 1027.6
20180620050934 48 319 9.0 15.0 0.00 0.00 0.00 77 1027.6
20180620045905 49 339 11.0 22.0 0.00 0.00 0.00 77 1027.6
20180620044914 49 304 12.0 22.0 0.00 0.00 0.00 77 1027.7
20180620043844 48 346 11.0 20.0 0.00 0.00 0.00 77 1027.7
20180620042834 48 330 11.0 22.0 0.00 0.00 0.00 80 1027.7
20180620041813 48 339 11.0 22.0 0.00 0.00 0.00 80 1027.9
20180620040754 48 304 9.0 18.0 0.00 0.00 0.00 82 1027.9
20180620035754 48 285 9.0 18.0 0.00 0.00 0.00 80 1028.0
20180620034743 48 302 8.0 18.0 0.00 0.00 0.00 81 1028.1
20180620033727 47 315 7.0 14.0 0.00 0.00 0.00 81 1028.3
20180620032713 47 306 7.0 14.0 0.00 0.00 0.00 81 1028.4
20180620031707 47 309 7.0 14.0 0.00 0.00 0.00 80 1028.6
20180620030634 48 335 7.0 13.0 0.00 0.00 0.00 79 1028.7
20180620025639 47 321 6.0 14.0 0.00 0.00 0.00 79 1028.6